Time,TemperatureF,DewpointF,PressureIn,WindDirection,WindDirectionDegrees,WindSpeedMPH,WindSpeedGustMPH,Humidity,HourlyPrecipIn,Conditions,Clouds,dailyrainin,SoftwareType,DateUTC
2013-11-03 00:01:00,35.8,16.0,29.73,West,259,0.0,0.0,44,0.00,,---,0.00,VWS V14.01,2013-11-03 06:01:00,
2013-11-03 00:06:00,35.4,15.7,29.73,West,259,0.0,0.0,44,0.00,,---,0.00,VWS V14.01,2013-11-03 06:06:00,
2013-11-03 00:11:00,34.7,15.0,29.73,NNE,26,0.0,0.0,44,0.00,,---,0.00,VWS V14.01,2013-11-03 06:11:00,
2013-11-03 00:16:00,34.3,15.2,29.73,ESE,105,0.0,0.0,45,0.00,,---,0.00,VWS V14.01,2013-11-03 06:16:00,
2013-11-03 00:21:00,33.8,14.7,29.73,South,181,0.0,0.0,45,0.00,,---,0.00,VWS V14.01,2013-11-03 06:21:00,
2013-11-03 00:26:00,33.6,15.1,29.73,South,181,0.0,0.0,46,0.00,,---,0.00,VWS V14.01,2013-11-03 06:26:00,
2013-11-03 00:31:00,33.6,17.0,29.73,East,82,0.0,0.0,50,0.00,,---,0.00,VWS V14.01,2013-11-03 06:31:00,
2013-11-03 00:36:00,33.3,17.1,29.73,East,79,4.0,4.0,51,0.00,,---,0.00,VWS V14.01,2013-11-03 06:36:00,
2013-11-03 00:41:00,33.4,17.3,29.73,ESE,102,3.6,4.0,51,0.00,,---,0.00,VWS V14.01,2013-11-03 06:41:00,
2013-11-03 00:46:00,34.0,17.8,29.73,East,97,3.1,3.6,51,0.00,,---,0.00,VWS V14.01,2013-11-03 06:46:00,
2013-11-03 00:51:00,34.0,17.8,29.73,West,276,0.0,5.4,51,0.00,,---,0.00,VWS V14.01,2013-11-03 06:51:00,
2013-11-03 00:56:00,33.6,17.9,29.73,NNW,341,0.0,5.4,52,0.00,,---,0.00,VWS V14.01,2013-11-03 06:56:00,
2013-11-03 01:00:00,36.7,11.0,29.73,SW,233,11.9,11.9,34,0.00,,---,0.00,VWS V14.01,2013-11-03 07:00:00,
2013-11-03 01:01:00,33.8,18.0,29.73,SW,217,3.6,3.6,52,0.00,,---,0.00,VWS V14.01,2013-11-03 07:01:00,
2013-11-03 01:02:00,37.0,10.6,29.73,SSW,213,7.6,11.9,33,0.00,,---,0.00,VWS V14.01,2013-11-03 07:02:00,
2013-11-03 01:03:00,37.0,9.9,29.73,SSW,205,8.1,11.9,32,0.00,,---,0.00,VWS V14.01,2013-11-03 07:03:00,
2013-11-03 01:04:00,37.2,10.1,29.73,WSW,251,6.3,11.9,32,0.00,,---,0.00,VWS V14.01,2013-11-03 07:04:00,
2013-11-03 01:05:00,37.4,10.2,29.73,WNW,298,2.2,11.9,32,0.00,,---,0.00,VWS V14.01,2013-11-03 07:05:00,
2013-11-03 01:06:00,33.6,17.9,29.73,WSW,238,0.0,3.6,52,0.00,,---,0.00,VWS V14.01,2013-11-03 07:06:00,
2013-11-03 01:07:00,37.6,10.4,29.73,West,268,3.6,11.9,32,0.00,,---,0.00,VWS V14.01,2013-11-03 07:07:00,
2013-11-03 01:11:00,33.8,17.6,29.73,SSE,168,3.6,4.9,51,0.00,,---,0.00,VWS V14.01,2013-11-03 07:11:00,
2013-11-03 01:16:00,34.7,18.0,29.73,SSE,164,5.4,5.4,50,0.00,,---,0.00,VWS V14.01,2013-11-03 07:16:00,
2013-11-03 01:21:00,35.4,16.7,29.73,East,101,4.9,6.3,46,0.00,,---,0.00,VWS V14.01,2013-11-03 07:21:00,
2013-11-03 01:26:00,35.8,14.9,29.73,ESE,114,4.0,7.6,42,0.00,,---,0.00,VWS V14.01,2013-11-03 07:26:00,
2013-11-03 01:31:00,36.5,15.1,29.73,SE,134,6.3,7.2,41,0.00,,---,0.00,VWS V14.01,2013-11-03 07:31:00,
2013-11-03 01:36:00,36.5,14.5,29.73,South,176,5.4,7.2,40,0.00,,---,0.00,VWS V14.01,2013-11-03 07:36:00,
2013-11-03 01:41:00,36.9,14.8,29.73,SW,225,2.7,7.2,40,0.00,,---,0.00,VWS V14.01,2013-11-03 07:41:00,
2013-11-03 01:46:00,36.3,12.6,29.73,SE,138,3.1,3.1,37,0.00,,---,0.00,VWS V14.01,2013-11-03 07:46:00,
2013-11-03 01:51:00,36.7,11.0,29.73,SSW,208,10.5,10.5,34,0.00,,---,0.00,VWS V14.01,2013-11-03 07:51:00,
2013-11-03 01:56:00,36.9,11.8,29.73,SSE,168,3.6,10.5,35,0.00,,---,0.00,VWS V14.01,2013-11-03 07:56:00,
2013-11-03 01:02:00,37.0,9.9,29.73,SW,226,5.8,11.9,32,0.00,,---,0.00,VWS V14.01,2013-11-03 08:02:00,
2013-11-03 01:07:00,37.6,10.4,29.73,WNW,287,0.0,11.9,32,0.00,,---,0.00,VWS V14.01,2013-11-03 08:07:00,
2013-11-03 01:12:00,37.4,10.2,29.73,ESE,110,0.0,11.9,32,0.00,,---,0.00,VWS V14.01,2013-11-03 08:12:00,
2013-11-03 01:17:00,36.5,10.1,29.73,ESE,110,0.0,11.9,33,0.00,,---,0.00,VWS V14.01,2013-11-03 08:17:00,
2013-11-03 01:22:00,35.8,9.5,29.73,ESE,110,0.0,11.9,33,0.00,,---,0.00,VWS V14.01,2013-11-03 08:22:00,
2013-11-03 01:27:00,35.2,9.7,29.73,ESE,117,2.7,11.9,34,0.00,,---,0.00,VWS V14.01,2013-11-03 08:27:00,
2013-11-03 01:32:00,35.1,10.2,29.73,SSW,192,0.0,11.9,35,0.00,,---,0.00,VWS V14.01,2013-11-03 08:32:00,
2013-11-03 01:37:00,34.3,8.9,29.73,SSW,193,8.7,11.9,34,0.00,,---,0.00,VWS V14.01,2013-11-03 08:37:00,
2013-11-03 01:42:00,35.6,9.4,29.73,SE,136,6.3,11.9,33,0.00,,---,0.00,VWS V14.01,2013-11-03 08:42:00,
2013-11-03 01:47:00,35.8,9.5,29.73,SSW,202,0.0,11.9,33,0.00,,---,0.00,VWS V14.01,2013-11-03 08:47:00,
2013-11-03 01:52:00,35.6,9.4,29.73,SSE,158,3.1,11.9,33,0.00,,---,0.00,VWS V14.01,2013-11-03 08:52:00,
2013-11-03 01:57:00,35.1,8.9,29.73,SSW,192,7.6,11.9,33,0.00,,---,0.00,VWS V14.01,2013-11-03 08:57:00,
2013-11-03 02:02:00,35.1,8.9,29.73,SSW,202,4.0,5.4,33,0.00,,---,0.00,VWS V14.01,2013-11-03 09:02:00,
2013-11-03 02:07:00,35.1,8.9,29.73,SSE,156,4.0,7.6,33,0.00,,---,0.00,VWS V14.01,2013-11-03 09:07:00,
2013-11-03 02:12:00,35.4,9.2,29.73,SW,229,0.0,7.6,33,0.00,,---,0.00,VWS V14.01,2013-11-03 09:12:00,
2013-11-03 02:17:00,35.2,9.7,29.73,West,274,0.0,0.0,34,0.00,,---,0.00,VWS V14.01,2013-11-03 09:17:00,
2013-11-03 02:22:00,35.1,9.5,29.73,East,93,2.2,3.1,34,0.00,,---,0.00,VWS V14.01,2013-11-03 09:22:00,
2013-11-03 02:27:00,34.7,9.2,29.73,East,88,2.7,4.0,34,0.00,,---,0.00,VWS V14.01,2013-11-03 09:27:00,
2013-11-03 02:32:00,34.3,8.9,29.73,SE,131,0.0,2.2,34,0.00,,---,0.00,VWS V14.01,2013-11-03 09:32:00,
2013-11-03 02:37:00,34.0,8.6,29.73,East,101,3.1,4.0,34,0.00,,---,0.00,VWS V14.01,2013-11-03 09:37:00,
2013-11-03 02:42:00,34.0,8.6,29.73,SE,129,4.9,8.7,34,0.00,,---,0.00,VWS V14.01,2013-11-03 09:42:00,
2013-11-03 02:47:00,34.9,9.4,29.73,West,276,0.0,3.6,34,0.00,,---,0.00,VWS V14.01,2013-11-03 09:47:00,
2013-11-03 02:52:00,34.5,9.7,29.76,WNW,294,3.1,4.0,35,0.00,,---,0.00,VWS V14.01,2013-11-03 09:52:00,
2013-11-03 02:57:00,34.5,9.7,29.76,SSW,208,0.0,4.0,35,0.00,,---,0.00,VWS V14.01,2013-11-03 09:57:00,
2013-11-03 03:02:00,34.9,10.0,29.76,WSW,257,2.2,4.0,35,0.00,,---,0.00,VWS V14.01,2013-11-03 10:02:00,
2013-11-03 03:07:00,34.9,10.0,29.76,WNW,294,0.0,4.0,35,0.00,,---,0.00,VWS V14.01,2013-11-03 10:07:00,
2013-11-03 03:12:00,34.3,9.5,29.76,East,82,0.0,4.0,35,0.00,,---,0.00,VWS V14.01,2013-11-03 10:12:00,
2013-11-03 03:17:00,33.8,10.3,29.76,ENE,75,0.0,0.0,37,0.00,,---,0.00,VWS V14.01,2013-11-03 10:17:00,
2013-11-03 03:22:00,33.4,10.6,29.76,ENE,75,0.0,0.0,38,0.00,,---,0.00,VWS V14.01,2013-11-03 10:22:00,
2013-11-03 03:27:00,33.1,10.2,29.76,SW,231,0.0,3.1,38,0.00,,---,0.00,VWS V14.01,2013-11-03 10:27:00,
2013-11-03 03:32:00,33.3,12.1,29.76,NW,312,2.2,3.1,41,0.00,,---,0.00,VWS V14.01,2013-11-03 10:32:00,
2013-11-03 03:37:00,33.6,12.4,29.76,North,4,2.2,3.1,41,0.00,,---,0.00,VWS V14.01,2013-11-03 10:37:00,
2013-11-03 03:42:00,33.4,12.3,29.76,WNW,288,0.0,3.1,41,0.00,,---,0.00,VWS V14.01,2013-11-03 10:42:00,
2013-11-03 03:47:00,33.1,12.0,29.76,North,9,0.0,0.0,41,0.00,,---,0.00,VWS V14.01,2013-11-03 10:47:00,
2013-11-03 03:52:00,32.5,12.0,29.76,NE,39,0.0,0.0,42,0.00,,---,0.00,VWS V14.01,2013-11-03 10:52:00,
2013-11-03 03:57:00,32.4,11.9,29.76,NE,39,0.0,0.0,42,0.00,,---,0.00,VWS V14.01,2013-11-03 10:57:00,
2013-11-03 04:02:00,32.0,12.1,29.76,NE,39,0.0,0.0,43,0.00,,---,0.00,VWS V14.01,2013-11-03 11:02:00,
2013-11-03 04:07:00,31.6,11.7,29.76,NE,39,0.0,0.0,43,0.00,,---,0.00,VWS V14.01,2013-11-03 11:07:00,
2013-11-03 04:12:00,31.6,11.7,29.76,NE,39,0.0,0.0,43,0.00,,---,0.00,VWS V14.01,2013-11-03 11:12:00,
2013-11-03 04:17:00,31.1,12.2,29.76,NE,39,0.0,0.0,45,0.00,,---,0.00,VWS V14.01,2013-11-03 11:17:00,
2013-11-03 04:22:00,30.7,13.4,29.76,NE,39,0.0,0.0,48,0.00,,---,0.00,VWS V14.01,2013-11-03 11:22:00,
2013-11-03 04:27:00,30.2,11.9,29.76,NE,39,0.0,0.0,46,0.00,,---,0.00,VWS V14.01,2013-11-03 11:27:00,
2013-11-03 04:32:00,30.0,11.8,29.76,NE,39,0.0,0.0,46,0.00,,---,0.00,VWS V14.01,2013-11-03 11:32:00,
2013-11-03 04:37:00,30.0,12.7,29.76,West,278,0.0,0.0,48,0.00,,---,0.00,VWS V14.01,2013-11-03 11:37:00,
2013-11-03 04:42:00,30.0,12.2,29.76,West,278,0.0,0.0,47,0.00,,---,0.00,VWS V14.01,2013-11-03 11:42:00,
2013-11-03 04:47:00,30.0,12.2,29.76,West,278,0.0,0.0,47,0.00,,---,0.00,VWS V14.01,2013-11-03 11:47:00,
2013-11-03 04:52:00,30.0,12.2,29.76,West,278,0.0,0.0,47,0.00,,---,0.00,VWS V14.01,2013-11-03 11:52:00,
2013-11-03 04:57:00,30.0,12.7,29.76,West,278,0.0,0.0,48,0.00,,---,0.00,VWS V14.01,2013-11-03 11:57:00,
2013-11-03 05:02:00,29.8,12.6,29.76,West,278,0.0,0.0,48,0.00,,---,0.00,VWS V14.01,2013-11-03 12:02:00,
2013-11-03 05:07:00,29.7,12.4,29.76,West,278,0.0,0.0,48,0.00,,---,0.00,VWS V14.01,2013-11-03 12:07:00,
2013-11-03 05:12:00,29.5,12.2,29.76,WSW,240,3.1,3.6,48,0.00,,---,0.00,VWS V14.01,2013-11-03 12:12:00,
2013-11-03 05:17:00,29.8,13.5,29.76,WSW,240,0.0,0.0,50,0.00,,---,0.00,VWS V14.01,2013-11-03 12:17:00,
2013-11-03 05:22:00,30.2,14.7,29.76,West,280,0.0,0.0,52,0.00,,---,0.00,VWS V14.01,2013-11-03 12:22:00,
2013-11-03 05:27:00,30.2,14.3,29.76,West,280,0.0,0.0,51,0.00,,---,0.00,VWS V14.01,2013-11-03 12:27:00,
2013-11-03 05:32:00,30.0,14.1,29.76,West,280,0.0,0.0,51,0.00,,---,0.00,VWS V14.01,2013-11-03 12:32:00,
2013-11-03 05:37:00,30.0,14.1,29.76,SSW,210,0.0,0.0,51,0.00,,---,0.00,VWS V14.01,2013-11-03 12:37:00,
2013-11-03 05:42:00,30.4,14.4,29.79,SW,233,0.0,0.0,51,0.00,,---,0.00,VWS V14.01,2013-11-03 12:42:00,
2013-11-03 05:47:00,31.1,14.6,29.79,SSW,210,2.2,3.6,50,0.00,,---,0.00,VWS V14.01,2013-11-03 12:47:00,
2013-11-03 05:52:00,32.2,15.6,29.79,SSW,210,0.0,3.6,50,0.00,,---,0.00,VWS V14.01,2013-11-03 12:52:00,
2013-11-03 05:57:00,32.5,15.5,29.79,SSW,210,0.0,3.6,49,0.00,,---,0.00,VWS V14.01,2013-11-03 12:57:00,
2013-11-03 06:02:00,32.5,15.5,29.79,SSW,210,0.0,0.0,49,0.00,,---,0.00,VWS V14.01,2013-11-03 13:02:00,
2013-11-03 06:07:00,32.4,15.4,29.76,SSW,210,0.0,0.0,49,0.00,,---,0.00,VWS V14.01,2013-11-03 13:07:00,
2013-11-03 06:12:00,32.2,14.7,29.76,SSW,210,0.0,0.0,48,0.00,,---,0.00,VWS V14.01,2013-11-03 13:12:00,
2013-11-03 06:17:00,31.8,14.9,29.76,SSW,210,0.0,0.0,49,0.00,,---,0.00,VWS V14.01,2013-11-03 13:17:00,
2013-11-03 06:22:00,32.4,14.4,29.76,SSW,210,0.0,0.0,47,0.00,,---,0.00,VWS V14.01,2013-11-03 13:22:00,
2013-11-03 06:27:00,32.7,14.2,29.76,SSW,210,0.0,0.0,46,0.00,,---,0.00,VWS V14.01,2013-11-03 13:27:00,
2013-11-03 06:32:00,32.5,14.1,29.76,SSW,210,0.0,0.0,46,0.00,,---,0.00,VWS V14.01,2013-11-03 13:32:00,
2013-11-03 06:37:00,32.4,13.9,29.76,SSW,210,0.0,0.0,46,0.00,,---,0.00,VWS V14.01,2013-11-03 13:37:00,
2013-11-03 06:42:00,32.0,13.6,29.79,SSW,210,0.0,0.0,46,0.00,,---,0.00,VWS V14.01,2013-11-03 13:42:00,
2013-11-03 06:47:00,31.6,13.2,29.79,SSW,210,0.0,0.0,46,0.00,,---,0.00,VWS V14.01,2013-11-03 13:47:00,
2013-11-03 06:52:00,31.5,13.6,29.79,SSW,210,0.0,0.0,47,0.00,,---,0.00,VWS V14.01,2013-11-03 13:52:00,
2013-11-03 06:57:00,31.6,13.7,29.79,SSW,210,2.7,2.7,47,0.00,,---,0.00,VWS V14.01,2013-11-03 13:57:00,
2013-11-03 07:02:00,31.8,13.9,29.79,SSW,210,3.6,3.6,47,0.00,,---,0.00,VWS V14.01,2013-11-03 14:02:00,
2013-11-03 07:07:00,32.0,14.1,29.79,SSW,210,2.7,3.6,47,0.00,,---,0.00,VWS V14.01,2013-11-03 14:07:00,
2013-11-03 07:12:00,32.0,14.1,29.79,SSW,210,3.1,4.0,47,0.00,,---,0.00,VWS V14.01,2013-11-03 14:12:00,
2013-11-03 07:17:00,31.8,13.9,29.79,SSW,210,0.0,2.7,47,0.00,,---,0.00,VWS V14.01,2013-11-03 14:17:00,
2013-11-03 07:22:00,31.8,13.9,29.79,SSW,210,3.1,4.9,47,0.00,,---,0.00,VWS V14.01,2013-11-03 14:22:00,
2013-11-03 07:27:00,31.8,13.9,29.79,SSW,210,3.1,4.9,47,0.00,,---,0.00,VWS V14.01,2013-11-03 14:27:00,
2013-11-03 07:32:00,31.8,13.9,29.79,SSW,210,0.0,2.7,47,0.00,,---,0.00,VWS V14.01,2013-11-03 14:32:00,
2013-11-03 07:37:00,31.6,14.2,29.79,SSW,210,0.0,4.0,48,0.00,,---,0.00,VWS V14.01,2013-11-03 14:37:00,
2013-11-03 07:42:00,31.6,14.2,29.79,SSW,210,0.0,4.0,48,0.00,,---,0.00,VWS V14.01,2013-11-03 14:42:00,
2013-11-03 07:47:00,31.6,14.2,29.79,SSW,210,0.0,0.0,48,0.00,,---,0.00,VWS V14.01,2013-11-03 14:47:00,
2013-11-03 07:52:00,31.8,14.9,29.79,SSW,210,4.0,4.5,49,0.00,,---,0.00,VWS V14.01,2013-11-03 14:52:00,
2013-11-03 07:57:00,32.2,15.2,29.79,SSW,210,0.0,4.5,49,0.00,,---,0.00,VWS V14.01,2013-11-03 14:57:00,
2013-11-03 08:02:00,32.4,15.4,29.79,SSW,210,3.6,4.9,49,0.00,,---,0.00,VWS V14.01,2013-11-03 15:02:00,
2013-11-03 08:07:00,32.4,15.4,29.79,SSW,210,2.7,4.9,49,0.00,,---,0.00,VWS V14.01,2013-11-03 15:07:00,
2013-11-03 08:12:00,32.5,15.5,29.79,SSW,210,0.0,4.9,49,0.00,,---,0.00,VWS V14.01,2013-11-03 15:12:00,
2013-11-03 08:17:00,32.7,15.7,29.79,SSW,210,0.0,0.0,49,0.00,,---,0.00,VWS V14.01,2013-11-03 15:17:00,
2013-11-03 08:22:00,33.1,16.0,29.79,SSW,198,0.0,0.0,49,0.00,,---,0.00,VWS V14.01,2013-11-03 15:22:00,
2013-11-03 08:27:00,33.6,17.0,29.79,SSW,198,0.0,0.0,50,0.00,,---,0.00,VWS V14.01,2013-11-03 15:27:00,
2013-11-03 08:32:00,34.0,16.8,29.79,SSW,198,2.7,3.1,49,0.00,,---,0.00,VWS V14.01,2013-11-03 15:32:00,
2013-11-03 08:37:00,34.3,17.2,29.79,SSW,198,2.7,4.0,49,0.00,,---,0.00,VWS V14.01,2013-11-03 15:37:00,
2013-11-03 08:42:00,34.3,16.7,29.79,SSW,198,0.0,4.0,48,0.00,,---,0.00,VWS V14.01,2013-11-03 15:42:00,
2013-11-03 08:47:00,34.3,17.2,29.79,SSW,198,0.0,0.0,49,0.00,,---,0.00,VWS V14.01,2013-11-03 15:47:00,
2013-11-03 08:52:00,34.9,17.2,29.79,SSW,198,0.0,0.0,48,0.00,,---,0.00,VWS V14.01,2013-11-03 15:52:00,
2013-11-03 08:57:00,35.1,16.9,29.79,SSW,198,0.0,0.0,47,0.00,,---,0.00,VWS V14.01,2013-11-03 15:57:00,
2013-11-03 09:02:00,35.4,16.7,29.79,SSW,198,0.0,0.0,46,0.00,,---,0.00,VWS V14.01,2013-11-03 16:02:00,
2013-11-03 09:07:00,35.6,16.9,29.79,SSW,198,0.0,0.0,46,0.00,,---,0.00,VWS V14.01,2013-11-03 16:07:00,
2013-11-03 09:12:00,35.6,16.4,29.79,SSW,198,0.0,0.0,45,0.00,,---,0.00,VWS V14.01,2013-11-03 16:12:00,
2013-11-03 09:17:00,35.8,16.0,29.79,SSW,198,0.0,0.0,44,0.00,,---,0.00,VWS V14.01,2013-11-03 16:17:00,
2013-11-03 09:22:00,36.5,17.2,29.79,SSW,198,0.0,0.0,45,0.00,,---,0.00,VWS V14.01,2013-11-03 16:22:00,
2013-11-03 09:27:00,37.0,15.5,29.79,SE,140,2.7,4.0,41,0.00,,---,0.00,VWS V14.01,2013-11-03 16:27:00,
2013-11-03 09:32:00,37.6,16.0,29.79,South,189,2.7,4.0,41,0.00,,---,0.00,VWS V14.01,2013-11-03 16:32:00,
2013-11-03 09:37:00,38.5,16.8,29.79,SE,139,3.1,4.9,41,0.00,,---,0.00,VWS V14.01,2013-11-03 16:37:00,
2013-11-03 09:42:00,39.9,17.6,29.79,East,98,4.9,5.4,40,0.00,,---,0.00,VWS V14.01,2013-11-03 16:42:00,
2013-11-03 09:47:00,41.5,17.8,29.79,ESE,116,2.2,3.1,38,0.00,,---,0.00,VWS V14.01,2013-11-03 16:47:00,
2013-11-03 09:52:00,42.3,16.6,29.79,East,97,6.3,6.3,35,0.00,,---,0.00,VWS V14.01,2013-11-03 16:52:00,
2013-11-03 09:57:00,41.4,14.4,29.79,SSW,203,2.7,8.1,33,0.00,,---,0.00,VWS V14.01,2013-11-03 16:57:00,
2013-11-03 10:02:00,41.4,14.4,29.79,SSE,163,6.3,6.3,33,0.00,,---,0.00,VWS V14.01,2013-11-03 17:02:00,
2013-11-03 10:07:00,41.5,14.6,29.79,SSE,156,5.8,7.6,33,0.00,,---,0.00,VWS V14.01,2013-11-03 17:07:00,
2013-11-03 10:12:00,41.7,14.1,29.79,East,97,6.3,8.3,32,0.00,,---,0.00,VWS V14.01,2013-11-03 17:12:00,
2013-11-03 10:17:00,42.1,14.4,29.79,ESE,112,3.1,6.3,32,0.00,,---,0.00,VWS V14.01,2013-11-03 17:17:00,
2013-11-03 10:22:00,41.7,13.3,29.79,ESE,122,5.4,7.6,31,0.00,,---,0.00,VWS V14.01,2013-11-03 17:22:00,
2013-11-03 10:27:00,41.2,12.9,29.79,South,176,5.4,8.3,31,0.00,,---,0.00,VWS V14.01,2013-11-03 17:27:00,
2013-11-03 10:32:00,41.0,12.7,29.79,South,173,5.8,7.6,31,0.00,,---,0.00,VWS V14.01,2013-11-03 17:32:00,
2013-11-03 10:37:00,40.6,13.1,29.79,ESE,115,6.3,8.1,32,0.00,,---,0.00,VWS V14.01,2013-11-03 17:37:00,
2013-11-03 10:42:00,40.5,12.9,29.79,ESE,108,5.4,8.1,32,0.00,,---,0.00,VWS V14.01,2013-11-03 17:42:00,
2013-11-03 10:47:00,40.3,12.1,29.79,SE,146,4.0,7.6,31,0.00,,---,0.00,VWS V14.01,2013-11-03 17:47:00,
2013-11-03 10:52:00,40.1,11.9,29.79,ESE,123,3.6,8.3,31,0.00,,---,0.00,VWS V14.01,2013-11-03 17:52:00,
2013-11-03 10:57:00,40.3,12.1,29.79,SSE,157,2.7,8.3,31,0.00,,---,0.00,VWS V14.01,2013-11-03 17:57:00,
2013-11-03 11:02:00,40.8,12.5,29.79,SSW,212,4.9,11.0,31,0.00,,---,0.00,VWS V14.01,2013-11-03 18:02:00,
2013-11-03 11:07:00,41.2,12.9,29.79,SSE,149,8.7,11.0,31,0.00,,---,0.00,VWS V14.01,2013-11-03 18:07:00,
2013-11-03 11:12:00,42.1,12.9,29.82,SSE,162,8.1,11.0,30,0.00,,---,0.00,VWS V14.01,2013-11-03 18:12:00,
2013-11-03 11:17:00,43.3,14.0,29.82,South,176,7.2,8.3,30,0.00,,---,0.00,VWS V14.01,2013-11-03 18:17:00,
2013-11-03 11:22:00,42.4,12.4,29.82,SW,234,7.6,9.6,29,0.00,,---,0.00,VWS V14.01,2013-11-03 18:22:00,
2013-11-03 11:27:00,43.0,12.9,29.79,South,169,5.8,9.6,29,0.00,,---,0.00,VWS V14.01,2013-11-03 18:27:00,
2013-11-03 11:32:00,44.1,13.9,29.79,WSW,238,4.0,8.7,29,0.00,,---,0.00,VWS V14.01,2013-11-03 18:32:00,
2013-11-03 11:37:00,45.5,15.1,29.79,SE,136,5.4,8.7,29,0.00,,---,0.00,VWS V14.01,2013-11-03 18:37:00,
2013-11-03 11:42:00,45.9,14.6,29.82,SSE,153,4.0,8.7,28,0.00,,---,0.00,VWS V14.01,2013-11-03 18:42:00,
2013-11-03 11:47:00,47.3,15.9,29.82,South,189,5.4,9.2,28,0.00,,---,0.00,VWS V14.01,2013-11-03 18:47:00,
2013-11-03 11:52:00,48.0,15.6,29.82,SW,214,8.3,11.0,27,0.00,,---,0.00,VWS V14.01,2013-11-03 18:52:00,
2013-11-03 11:57:00,48.2,15.8,29.79,SE,136,5.4,11.0,27,0.00,,---,0.00,VWS V14.01,2013-11-03 18:57:00,
2013-11-03 12:02:00,48.2,14.9,29.79,SSE,165,8.1,11.0,26,0.00,,---,0.00,VWS V14.01,2013-11-03 19:02:00,
2013-11-03 12:07:00,48.0,15.6,29.79,South,187,8.7,11.0,27,0.00,,---,0.00,VWS V14.01,2013-11-03 19:07:00,
2013-11-03 12:12:00,47.7,15.3,29.79,SSE,156,8.1,11.0,27,0.00,,---,0.00,VWS V14.01,2013-11-03 19:12:00,
2013-11-03 12:17:00,46.9,14.7,29.79,WSW,242,3.1,9.2,27,0.00,,---,0.00,VWS V14.01,2013-11-03 19:17:00,
2013-11-03 12:22:00,47.7,15.3,29.79,SSE,152,9.6,9.6,27,0.00,,---,0.00,VWS V14.01,2013-11-03 19:22:00,
2013-11-03 12:26:00,48.6,15.2,29.79,East,85,0.0,9.6,26,0.00,,---,0.00,VWS V14.01,2013-11-03 19:26:00,
2013-11-03 12:31:00,48.6,15.2,29.79,SE,127,4.0,7.6,26,0.00,,---,0.00,VWS V14.01,2013-11-03 19:31:00,
2013-11-03 12:36:00,46.6,11.7,29.79,WNW,288,6.3,7.6,24,0.00,,---,0.00,VWS V14.01,2013-11-03 19:36:00,
2013-11-03 12:41:00,45.5,13.5,29.79,NE,56,0.0,7.6,27,0.00,,---,0.00,VWS V14.01,2013-11-03 19:41:00,
2013-11-03 12:46:00,45.1,13.2,29.79,East,86,5.8,5.8,27,0.00,,---,0.00,VWS V14.01,2013-11-03 19:46:00,
2013-11-03 12:51:00,45.3,13.3,29.79,NNE,24,2.2,5.8,27,0.00,,---,0.00,VWS V14.01,2013-11-03 19:51:00,
2013-11-03 12:56:00,44.4,13.4,29.79,ENE,69,0.0,5.8,28,0.00,,---,0.00,VWS V14.01,2013-11-03 19:56:00,
2013-11-03 13:01:00,43.7,12.8,29.79,ENE,72,0.0,3.1,28,0.00,,---,0.00,VWS V14.01,2013-11-03 20:01:00,
2013-11-03 13:06:00,43.0,12.1,29.79,North,8,2.7,3.1,28,0.00,,---,0.00,VWS V14.01,2013-11-03 20:06:00,
2013-11-03 13:11:00,42.3,11.5,29.79,North,353,3.1,3.6,28,0.00,,---,0.00,VWS V14.01,2013-11-03 20:11:00,
2013-11-03 13:16:00,41.9,11.2,29.79,North,357,2.7,3.6,28,0.00,,---,0.00,VWS V14.01,2013-11-03 20:16:00,
2013-11-03 13:21:00,41.7,11.0,29.79,North,357,2.2,4.0,28,0.00,,---,0.00,VWS V14.01,2013-11-03 20:21:00,
2013-11-03 13:26:00,42.1,11.3,29.79,North,357,0.0,4.0,28,0.00,,---,0.00,VWS V14.01,2013-11-03 20:26:00,
2013-11-03 13:31:00,42.4,11.7,29.79,West,276,3.1,5.8,28,0.00,,---,0.00,VWS V14.01,2013-11-03 20:31:00,
2013-11-03 13:36:00,43.2,12.3,29.79,West,271,2.7,5.8,28,0.00,,---,0.00,VWS V14.01,2013-11-03 20:36:00,
2013-11-03 13:41:00,43.5,12.6,29.79,WNW,294,0.0,5.8,28,0.00,,---,0.00,VWS V14.01,2013-11-03 20:41:00,
2013-11-03 13:46:00,44.6,13.5,29.79,NW,311,0.0,0.0,28,0.00,,---,0.00,VWS V14.01,2013-11-03 20:46:00,
2013-11-03 13:51:00,45.1,14.0,29.79,NNW,345,0.0,0.0,28,0.00,,---,0.00,VWS V14.01,2013-11-03 20:51:00,
2013-11-03 13:56:00,45.3,14.1,29.82,East,83,4.0,5.4,28,0.00,,---,0.00,VWS V14.01,2013-11-03 20:56:00,
2013-11-03 14:01:00,45.1,14.0,29.82,SW,218,4.0,5.8,28,0.00,,---,0.00,VWS V14.01,2013-11-03 21:01:00,
2013-11-03 14:06:00,45.3,14.1,29.82,SE,141,6.3,8.1,28,0.00,,---,0.00,VWS V14.01,2013-11-03 21:06:00,
2013-11-03 14:11:00,46.0,14.8,29.82,ESE,122,4.0,8.1,28,0.00,,---,0.00,VWS V14.01,2013-11-03 21:11:00,
2013-11-03 14:16:00,45.9,14.6,29.82,NNE,15,2.2,2.7,28,0.00,,---,0.00,VWS V14.01,2013-11-03 21:16:00,
2013-11-03 14:21:00,45.5,14.3,29.82,North,0,0.0,2.7,28,0.00,,---,0.00,VWS V14.01,2013-11-03 21:21:00,
2013-11-03 14:26:00,45.5,13.5,29.82,ESE,122,3.6,4.0,27,0.00,,---,0.00,VWS V14.01,2013-11-03 21:26:00,
2013-11-03 14:31:00,45.1,14.0,29.82,ESE,122,0.0,0.0,28,0.00,,---,0.00,VWS V14.01,2013-11-03 21:31:00,
2013-11-03 14:36:00,44.1,13.1,29.82,NE,38,0.0,0.0,28,0.00,,---,0.00,VWS V14.01,2013-11-03 21:36:00,
2013-11-03 14:41:00,43.3,12.4,29.82,North,353,3.6,3.6,28,0.00,,---,0.00,VWS V14.01,2013-11-03 21:41:00,
2013-11-03 14:46:00,42.8,12.0,29.82,WNW,291,3.1,4.9,28,0.00,,---,0.00,VWS V14.01,2013-11-03 21:46:00,
2013-11-03 14:51:00,42.3,11.5,29.82,North,357,0.0,5.8,28,0.00,,---,0.00,VWS V14.01,2013-11-03 21:51:00,
2013-11-03 14:56:00,42.8,12.0,29.82,West,274,0.0,5.8,28,0.00,,---,0.00,VWS V14.01,2013-11-03 21:56:00,
2013-11-03 15:01:00,43.3,12.4,29.82,West,277,0.0,0.0,28,0.00,,---,0.00,VWS V14.01,2013-11-03 22:01:00,
2013-11-03 15:06:00,43.0,12.1,29.82,WNW,294,0.0,3.1,28,0.00,,---,0.00,VWS V14.01,2013-11-03 22:06:00,
2013-11-03 15:11:00,42.6,11.8,29.82,West,276,0.0,3.1,28,0.00,,---,0.00,VWS V14.01,2013-11-03 22:11:00,
2013-11-03 15:16:00,42.3,11.5,29.82,WNW,286,0.0,2.7,28,0.00,,---,0.00,VWS V14.01,2013-11-03 22:16:00,
2013-11-03 15:21:00,42.3,11.5,29.82,SSW,205,7.6,8.3,28,0.00,,---,0.00,VWS V14.01,2013-11-03 22:21:00,
2013-11-03 15:26:00,41.4,11.5,29.82,SSW,202,5.4,10.1,29,0.00,,---,0.00,VWS V14.01,2013-11-03 22:26:00,
2013-11-03 15:31:00,40.3,11.3,29.82,SE,129,8.1,10.1,30,0.00,,---,0.00,VWS V14.01,2013-11-03 22:31:00,
2013-11-03 15:36:00,40.3,11.3,29.82,South,170,6.7,10.1,30,0.00,,---,0.00,VWS V14.01,2013-11-03 22:36:00,
2013-11-03 15:41:00,40.3,11.3,29.82,SSE,147,3.1,10.1,30,0.00,,---,0.00,VWS V14.01,2013-11-03 22:41:00,
2013-11-03 15:46:00,40.3,11.3,29.82,ESE,117,3.1,6.3,30,0.00,,---,0.00,VWS V14.01,2013-11-03 22:46:00,
2013-11-03 15:51:00,40.1,11.2,29.82,SSE,152,2.7,6.3,30,0.00,,---,0.00,VWS V14.01,2013-11-03 22:51:00,
2013-11-03 15:56:00,39.9,11.0,29.82,South,190,0.0,6.3,30,0.00,,---,0.00,VWS V14.01,2013-11-03 22:56:00,
2013-11-03 16:01:00,39.9,11.0,29.82,NW,308,0.0,2.2,30,0.00,,---,0.00,VWS V14.01,2013-11-03 23:01:00,
2013-11-03 16:06:00,39.4,10.5,29.82,NW,325,4.0,6.3,30,0.00,,---,0.00,VWS V14.01,2013-11-03 23:06:00,
2013-11-03 16:11:00,38.7,10.6,29.85,NW,304,2.2,6.3,31,0.00,,---,0.00,VWS V14.01,2013-11-03 23:11:00,
2013-11-03 16:16:00,38.7,10.6,29.85,SE,142,0.0,2.7,31,0.00,,---,0.00,VWS V14.01,2013-11-03 23:16:00,
2013-11-03 16:21:00,38.5,11.2,29.85,ESE,122,3.1,5.4,32,0.00,,---,0.00,VWS V14.01,2013-11-03 23:21:00,
2013-11-03 16:26:00,38.3,11.0,29.85,SE,135,2.7,5.4,32,0.00,,---,0.00,VWS V14.01,2013-11-03 23:26:00,
2013-11-03 16:31:00,38.1,10.9,29.85,ESE,119,0.0,0.0,32,0.00,,---,0.00,VWS V14.01,2013-11-03 23:31:00,
2013-11-03 16:36:00,38.1,10.9,29.85,East,82,3.1,5.4,32,0.00,,---,0.00,VWS V14.01,2013-11-03 23:36:00,
2013-11-03 16:41:00,37.9,10.7,29.85,SE,129,2.7,6.3,32,0.00,,---,0.00,VWS V14.01,2013-11-03 23:41:00,
2013-11-03 16:46:00,37.6,11.1,29.85,East,98,2.7,5.8,33,0.00,,---,0.00,VWS V14.01,2013-11-03 23:46:00,
2013-11-03 16:51:00,37.4,11.6,29.85,ESE,108,5.8,5.8,34,0.00,,---,0.00,VWS V14.01,2013-11-03 23:51:00,
2013-11-03 16:56:00,37.2,12.1,29.82,ESE,109,4.9,8.3,35,0.00,,---,0.00,VWS V14.01,2013-11-03 23:56:00,
2013-11-03 17:01:00,37.0,12.6,29.82,ENE,62,3.1,10.1,36,0.00,,---,0.00,VWS V14.01,2013-11-04 00:01:00,
2013-11-03 17:06:00,36.7,12.9,29.82,SE,143,4.0,10.1,37,0.00,,---,0.00,VWS V14.01,2013-11-04 00:06:00,
2013-11-03 17:11:00,36.3,12.6,29.85,SE,131,5.4,10.1,37,0.00,,---,0.00,VWS V14.01,2013-11-04 00:11:00,
2013-11-03 17:16:00,36.1,12.4,29.85,SE,141,2.2,2.7,37,0.00,,---,0.00,VWS V14.01,2013-11-04 00:16:00,
2013-11-03 17:21:00,36.1,13.0,29.85,SE,145,4.9,7.2,38,0.00,,---,0.00,VWS V14.01,2013-11-04 00:21:00,
2013-11-03 17:26:00,36.1,13.0,29.85,South,180,0.0,7.2,38,0.00,,---,0.00,VWS V14.01,2013-11-04 00:26:00,
2013-11-03 17:31:00,36.3,12.6,29.85,SSE,153,4.0,6.3,37,0.00,,---,0.00,VWS V14.01,2013-11-04 00:31:00,
2013-11-03 17:36:00,36.5,12.7,29.85,SSW,210,3.1,6.3,37,0.00,,---,0.00,VWS V14.01,2013-11-04 00:36:00,
2013-11-03 17:41:00,36.3,12.6,29.85,SSW,195,0.0,6.3,37,0.00,,---,0.00,VWS V14.01,2013-11-04 00:41:00,
2013-11-03 17:46:00,36.1,13.0,29.85,SE,146,0.0,0.0,38,0.00,,---,0.00,VWS V14.01,2013-11-04 00:46:00,
2013-11-03 17:51:00,36.0,13.4,29.85,SE,143,3.6,3.6,39,0.00,,---,0.00,VWS V14.01,2013-11-04 00:51:00,
2013-11-03 17:56:00,36.0,12.8,29.85,SE,144,0.0,3.6,38,0.00,,---,0.00,VWS V14.01,2013-11-04 00:56:00,
2013-11-03 18:01:00,35.8,12.7,29.85,SE,144,0.0,0.0,38,0.00,,---,0.00,VWS V14.01,2013-11-04 01:01:00,
2013-11-03 18:06:00,35.6,13.1,29.85,East,93,0.0,0.0,39,0.00,,---,0.00,VWS V14.01,2013-11-04 01:06:00,
2013-11-03 18:11:00,35.4,13.5,29.85,East,93,0.0,0.0,40,0.00,,---,0.00,VWS V14.01,2013-11-04 01:11:00,
2013-11-03 18:16:00,35.4,14.1,29.85,ENE,74,0.0,0.0,41,0.00,,---,0.00,VWS V14.01,2013-11-04 01:16:00,
2013-11-03 18:21:00,35.2,13.9,29.85,ENE,70,0.0,0.0,41,0.00,,---,0.00,VWS V14.01,2013-11-04 01:21:00,
2013-11-03 18:26:00,35.4,14.1,29.85,ENE,58,0.0,0.0,41,0.00,,---,0.00,VWS V14.01,2013-11-04 01:26:00,
2013-11-03 18:31:00,35.4,14.1,29.85,ENE,75,0.0,0.0,41,0.00,,---,0.00,VWS V14.01,2013-11-04 01:31:00,
2013-11-03 18:36:00,35.4,14.1,29.85,ENE,74,0.0,0.0,41,0.00,,---,0.00,VWS V14.01,2013-11-04 01:36:00,
2013-11-03 18:41:00,35.4,14.1,29.85,ENE,60,0.0,0.0,41,0.00,,---,0.00,VWS V14.01,2013-11-04 01:41:00,
2013-11-03 18:46:00,35.4,14.1,29.85,NNE,32,0.0,0.0,41,0.00,,---,0.00,VWS V14.01,2013-11-04 01:46:00,
2013-11-03 18:51:00,35.6,13.7,29.85,NNE,32,0.0,0.0,40,0.00,,---,0.00,VWS V14.01,2013-11-04 01:51:00,
2013-11-03 18:56:00,35.6,14.2,29.85,NNE,20,2.2,2.2,41,0.00,,---,0.00,VWS V14.01,2013-11-04 01:56:00,
2013-11-03 19:01:00,35.4,14.6,29.85,North,353,0.0,0.0,42,0.00,,---,0.00,VWS V14.01,2013-11-04 02:01:00,
2013-11-03 19:06:00,35.2,15.0,29.85,North,353,0.0,0.0,43,0.00,,---,0.00,VWS V14.01,2013-11-04 02:06:00,
2013-11-03 19:11:00,35.1,14.3,29.85,SSW,196,0.0,0.0,42,0.00,,---,0.00,VWS V14.01,2013-11-04 02:11:00,
2013-11-03 19:16:00,35.1,14.3,29.85,SSW,196,0.0,0.0,42,0.00,,---,0.00,VWS V14.01,2013-11-04 02:16:00,
2013-11-03 19:21:00,34.9,14.1,29.85,SSW,196,0.0,0.0,42,0.00,,---,0.00,VWS V14.01,2013-11-04 02:21:00,
2013-11-03 19:26:00,34.5,14.3,29.88,SSW,196,0.0,0.0,43,0.00,,---,0.00,VWS V14.01,2013-11-04 02:26:00,
2013-11-03 19:31:00,34.2,14.0,29.88,SE,139,4.0,4.0,43,0.00,,---,0.00,VWS V14.01,2013-11-04 02:31:00,
2013-11-03 19:36:00,33.8,13.7,29.88,SE,141,3.1,5.4,43,0.00,,---,0.00,VWS V14.01,2013-11-04 02:36:00,
2013-11-03 19:41:00,33.4,13.9,29.88,SSE,166,2.2,5.4,44,0.00,,---,0.00,VWS V14.01,2013-11-04 02:41:00,
2013-11-03 19:46:00,33.1,13.6,29.88,SSE,166,0.0,2.2,44,0.00,,---,0.00,VWS V14.01,2013-11-04 02:46:00,
2013-11-03 19:51:00,32.7,13.2,29.88,SSE,167,0.0,2.2,44,0.00,,---,0.00,VWS V14.01,2013-11-04 02:51:00,
2013-11-03 19:56:00,32.5,13.1,29.88,SSW,199,2.2,3.6,44,0.00,,---,0.00,VWS V14.01,2013-11-04 02:56:00,
2013-11-03 20:01:00,32.5,13.6,29.88,South,183,2.2,2.7,45,0.00,,---,0.00,VWS V14.01,2013-11-04 03:01:00,
2013-11-03 20:06:00,32.2,13.2,29.88,SSE,163,0.0,3.1,45,0.00,,---,0.00,VWS V14.01,2013-11-04 03:06:00,
2013-11-03 20:11:00,31.8,12.9,29.88,SSE,161,0.0,3.1,45,0.00,,---,0.00,VWS V14.01,2013-11-04 03:11:00,
2013-11-03 20:16:00,31.5,12.6,29.88,SSE,161,0.0,0.0,45,0.00,,---,0.00,VWS V14.01,2013-11-04 03:16:00,
2013-11-03 20:21:00,30.9,12.6,29.88,SSE,161,0.0,0.0,46,0.00,,---,0.00,VWS V14.01,2013-11-04 03:21:00,
2013-11-03 20:26:00,30.7,12.4,29.88,SSE,161,0.0,0.0,46,0.00,,---,0.00,VWS V14.01,2013-11-04 03:26:00,
2013-11-03 20:31:00,30.4,12.1,29.88,SSE,161,0.0,0.0,46,0.00,,---,0.00,VWS V14.01,2013-11-04 03:31:00,
2013-11-03 20:36:00,30.0,11.8,29.88,SSE,161,0.0,0.0,46,0.00,,---,0.00,VWS V14.01,2013-11-04 03:36:00,
2013-11-03 20:41:00,30.0,12.2,29.88,SSE,161,0.0,0.0,47,0.00,,---,0.00,VWS V14.01,2013-11-04 03:41:00,
2013-11-03 20:46:00,30.2,12.9,29.88,SSE,161,0.0,0.0,48,0.00,,---,0.00,VWS V14.01,2013-11-04 03:46:00,
2013-11-03 20:51:00,30.4,13.1,29.88,SSW,198,0.0,0.0,48,0.00,,---,0.00,VWS V14.01,2013-11-04 03:51:00,
2013-11-03 20:56:00,30.4,13.5,29.88,SSW,198,0.0,0.0,49,0.00,,---,0.00,VWS V14.01,2013-11-04 03:56:00,
2013-11-03 21:01:00,30.4,13.5,29.88,SSW,198,0.0,0.0,49,0.00,,---,0.00,VWS V14.01,2013-11-04 04:01:00,
2013-11-03 21:06:00,30.6,14.1,29.88,SSW,198,0.0,0.0,50,0.00,,---,0.00,VWS V14.01,2013-11-04 04:06:00,
2013-11-03 21:11:00,30.7,14.3,29.88,SSW,198,0.0,0.0,50,0.00,,---,0.00,VWS V14.01,2013-11-04 04:11:00,
2013-11-03 21:16:00,31.1,15.5,29.88,SSW,198,0.0,0.0,52,0.00,,---,0.00,VWS V14.01,2013-11-04 04:16:00,
2013-11-03 21:21:00,31.3,17.0,29.88,SSW,198,0.0,0.0,55,0.00,,---,0.00,VWS V14.01,2013-11-04 04:21:00,
2013-11-03 21:26:00,31.5,17.2,29.88,SE,131,0.0,0.0,55,0.00,,---,0.00,VWS V14.01,2013-11-04 04:26:00,
2013-11-03 21:31:00,31.5,16.8,29.88,SE,140,3.6,3.6,54,0.00,,---,0.00,VWS V14.01,2013-11-04 04:31:00,
2013-11-03 21:36:00,31.5,16.8,29.88,WSW,253,0.0,3.6,54,0.00,,---,0.00,VWS V14.01,2013-11-04 04:36:00,
2013-11-03 21:41:00,31.1,16.0,29.88,WSW,243,0.0,3.6,53,0.00,,---,0.00,VWS V14.01,2013-11-04 04:41:00,
2013-11-03 21:46:00,30.7,15.6,29.88,SSW,209,0.0,0.0,53,0.00,,---,0.00,VWS V14.01,2013-11-04 04:46:00,
2013-11-03 21:51:00,30.2,15.1,29.88,SSW,207,0.0,0.0,53,0.00,,---,0.00,VWS V14.01,2013-11-04 04:51:00,
2013-11-03 21:56:00,29.8,14.8,29.88,SSW,207,0.0,0.0,53,0.00,,---,0.00,VWS V14.01,2013-11-04 04:56:00,
2013-11-03 22:01:00,29.5,14.5,29.88,WSW,256,0.0,0.0,53,0.00,,---,0.00,VWS V14.01,2013-11-04 05:01:00,
2013-11-03 22:06:00,29.1,14.1,29.88,WSW,256,0.0,0.0,53,0.00,,---,0.00,VWS V14.01,2013-11-04 05:06:00,
2013-11-03 22:11:00,28.6,13.6,29.88,WSW,256,0.0,0.0,53,0.00,,---,0.00,VWS V14.01,2013-11-04 05:11:00,
2013-11-03 22:16:00,28.2,13.7,29.88,WSW,256,0.0,0.0,54,0.00,,---,0.00,VWS V14.01,2013-11-04 05:16:00,
2013-11-03 22:21:00,27.9,13.4,29.88,WSW,246,0.0,0.0,54,0.00,,---,0.00,VWS V14.01,2013-11-04 05:21:00,
2013-11-03 22:26:00,27.5,13.1,29.88,WSW,246,0.0,0.0,54,0.00,,---,0.00,VWS V14.01,2013-11-04 05:26:00,
2013-11-03 22:31:00,27.3,12.9,29.88,WSW,247,0.0,0.0,54,0.00,,---,0.00,VWS V14.01,2013-11-04 05:31:00,
2013-11-03 22:36:00,27.1,12.7,29.88,WSW,246,0.0,0.0,54,0.00,,---,0.00,VWS V14.01,2013-11-04 05:36:00,
2013-11-03 22:41:00,27.0,12.6,29.88,East,85,0.0,4.0,54,0.00,,---,0.00,VWS V14.01,2013-11-04 05:41:00,
2013-11-03 22:46:00,26.8,12.4,29.88,SSW,209,0.0,0.0,54,0.00,,---,0.00,VWS V14.01,2013-11-04 05:46:00,
2013-11-03 22:51:00,26.6,12.6,29.88,WSW,245,2.7,4.0,55,0.00,,---,0.00,VWS V14.01,2013-11-04 05:51:00,
2013-11-03 22:56:00,26.4,12.5,29.88,WSW,245,0.0,4.0,55,0.00,,---,0.00,VWS V14.01,2013-11-04 05:56:00,
2013-11-03 23:01:00,26.6,13.4,29.88,WSW,245,0.0,0.0,57,0.00,,---,0.00,VWS V14.01,2013-11-04 06:01:00,
2013-11-03 23:06:00,26.4,13.3,29.88,WSW,245,0.0,0.0,57,0.00,,---,0.00,VWS V14.01,2013-11-04 06:06:00,
2013-11-03 23:11:00,26.4,13.3,29.88,WSW,245,0.0,0.0,57,0.00,,---,0.00,VWS V14.01,2013-11-04 06:11:00,
2013-11-03 23:16:00,26.6,13.4,29.88,WSW,237,0.0,0.0,57,0.00,,---,0.00,VWS V14.01,2013-11-04 06:16:00,
2013-11-03 23:21:00,27.5,14.3,29.88,South,170,0.0,4.9,57,0.00,,---,0.00,VWS V14.01,2013-11-04 06:21:00,
2013-11-03 23:26:00,27.9,14.6,29.88,South,170,0.0,4.9,57,0.00,,---,0.00,VWS V14.01,2013-11-04 06:26:00,
2013-11-03 23:31:00,27.7,14.4,29.88,South,170,0.0,0.0,57,0.00,,---,0.00,VWS V14.01,2013-11-04 06:31:00,
2013-11-03 23:36:00,27.5,14.3,29.88,South,170,0.0,0.0,57,0.00,,---,0.00,VWS V14.01,2013-11-04 06:36:00,
2013-11-03 23:41:00,27.3,14.5,29.88,South,170,0.0,0.0,58,0.00,,---,0.00,VWS V14.01,2013-11-04 06:41:00,
2013-11-03 23:46:00,27.0,14.2,29.88,South,170,0.0,0.0,58,0.00,,---,0.00,VWS V14.01,2013-11-04 06:46:00,
2013-11-03 23:51:00,26.8,14.0,29.88,South,170,0.0,0.0,58,0.00,,---,0.00,VWS V14.01,2013-11-04 06:51:00,
2013-11-03 23:56:00,26.4,13.7,29.88,South,170,0.0,0.0,58,0.00,,---,0.00,VWS V14.01,2013-11-04 06:56:00,